Location: Batang Balui
(2.7000°N, 113.7833°E)
Time: 16:16:43
(UTC+00:00)

Daily predictions for brighter satellites

Satellite Brightness Start Highest point End
(mag) Time Altitude Azimuth Time Altitude Azimuth Time Altitude Azimuth
GPS 2-17 Rocket1 3.1 12:02:52 10° WSW 12:07:32 68° SSE 12:08:09 59° ESE
Aureole 1 Rocket 3.5 12:05:49 10° S 12:10:45 78° E 12:13:43 32° NNE
GP-B 2.9 12:06:56 10° S 12:11:20 76° E 12:11:41 71° NE
Cosmos 1814 Rocket 3.9 12:06:38 10° N 12:11:52 61° ENE 12:17:04 10° SSE
Meteor 2-3 Rocket 3.7 12:09:21 10° S 12:15:11 88° W 12:19:07 21° N
SJ 16-02 3.6 12:13:33 10° SW 12:17:03 23° WNW 12:20:32 10° NNW
ISS -0.5 12:20:59 10° W 12:22:36 13° SW 12:24:14 10° SSW
SL-16 R/B 2.6 12:18:39 10° SSW 12:24:12 59° WNW 12:27:01 29° N
ARIANE 5 R/B 3.9 12:34:50 10° WSW 12:38:48 48° SSE 12:40:51 41° SE
ATLAS 2AS CENTAUR RB 2.6 12:26:26 10° W 12:40:15 58° NNW 12:40:15 58° NNW
GPS 2-12 Rocket1 4.4 12:36:59 10° WNW 12:39:56 38° WNW 12:39:56 38° WNW
Aurora 2 Rocket 4.1 12:40:15 10° WSW 12:43:06 32° W 12:43:06 32° W
Okean O Rocket 3.7 12:43:56 10° SSW 12:47:33 26° WSW 12:51:11 10° NW
CZ-4 R/B 4.4 12:52:43 10° SW 12:55:09 15° WSW 12:57:34 10° WNW
Ariane H10+ 4.0 12:51:57 10° W 12:53:14 16° W 12:53:14 16° W
ATLAS 3B CENTAUR R/B 4.4 19:30:57 29° SE 19:30:57 29° SE 19:34:41 10° SE
CZ-3 R/B 4.1 18:43:18 10° WSW 19:42:20 74° NW 19:55:10 10° NE
Cosmos 2227 Rocket 4.5 19:51:28 10° SSE 19:55:31 20° ESE 19:59:33 10° ENE
Milstar 3 3.8 19:57:30 58° NE 19:57:30 58° NE 20:10:40 10° ESE
Cosmos 2026 Rocket 4.5 20:28:46 10° S 20:34:45 56° E 20:40:38 10° NNE
Cosmos 2180 Rocket 4.5 20:40:01 54° N 20:41:37 84° E 20:48:01 10° S
Cosmos 1428 Rocket 4.4 20:36:32 10° S 20:42:39 84° E 20:48:48 10° N
ATLAS 5 CENTAUR R/B 3.1 20:44:47 23° NNE 20:45:31 24° NE 20:52:47 10° E
Cosmos 2279 Rocket 4.4 20:48:11 47° SW 20:48:11 47° SW 20:52:51 10° S
Cosmos 1954 Rocket 4.3 20:48:43 56° S 20:48:43 56° S 20:52:50 10° S
Cosmos 2219 Rocket 4.1 20:43:34 10° NNE 20:48:17 27° ENE 20:53:01 10° SE
Cosmos 1992 Rocket 4.4 20:43:23 10° S 20:48:33 62° ESE 20:53:40 10° NNE
Cosmos 1092 Rocket 3.9 20:44:19 10° S 20:50:41 87° W 20:57:00 10° N
Cosmos 2360 Rocket 2.1 20:50:55 69° NNW 20:51:40 89° E 20:57:19 10° SSE
Spot 4 Rocket 3.9 20:50:17 47° NNE 20:51:48 89° ESE 20:56:57 10° SSW
Cosmos 2195 Rocket 4.3 20:49:44 10° S 20:55:51 69° W 21:01:59 10° N
ARIANE 5 R/B 1.8 21:01:55 49° SE 21:01:55 49° SE 21:06:28 10° E
Centaur AC-146 3.7 20:57:35 32° WNW 21:04:13 65° N 21:08:23 10° E
Cosmos 2322 Rocket 3.0 21:08:25 33° SW 21:08:25 33° SW 21:12:35 10° S
BLOCK DM-SL R/B 3.7 21:04:08 36° W 21:07:48 81° N 21:12:01 10° E
ARIANE 5 R/B 3.3 21:10:02 27° SSE 21:10:02 27° SSE 21:11:58 10° ESE
Ariane H10-3 3.9 21:08:18 42° W 21:10:38 89° N 21:50:26 10° E
ATLAS 3B CENTAUR R/B 4.2 21:10:09 21° WSW 21:13:04 25° SSW 21:19:27 10° SSE
USA 281 4.0 21:11:25 10° SSW 21:16:56 29° WSW 21:17:19 29° WSW
OAO 2 Rocket 3.1 21:15:28 40° WSW 21:17:14 79° NW 21:22:07 10° NE
Cosmos 2333 Rocket 2.1 21:14:05 22° NNW 21:17:58 82° WSW 21:23:43 10° SSE
Delta 128 4.1 21:17:34 41° WSW 21:18:40 49° SSW 21:23:45 10° SE
Hubble Space Telescope 0.8 21:19:08 51° NNW 21:20:00 70° NNE 21:24:05 10° ESE
SL-16 R/B 4.3 21:28:02 10° SW 21:28:02 10° SW 21:28:08 10° SW
Cosmos 1867 3.9 21:22:19 10° SSW 21:27:41 69° ESE 21:33:03 10° NNE
Cosmos 1544 Rocket 4.4 21:24:02 10° S 21:28:19 52° E 21:32:33 10° NNE
COSMOS 2428 3.9 21:27:08 10° N 21:32:30 42° ENE 21:37:52 10° SE
Meteor 1-29 3.0 21:32:57 43° W 21:32:57 43° W 21:35:42 10° SSW
Cosmos 2333 4.3 21:29:37 16° NNW 21:34:09 58° WSW 21:39:49 10° S
SL-08 R/B 3.3 21:31:58 10° SSE 21:36:36 86° E 21:41:19 10° N
Cosmos 1825 2.6 21:33:53 10° N 21:37:28 60° E 21:41:05 10° SSE
NOSS 3-4 (A) 3.5 21:32:38 10° SSW 21:38:24 69° ESE 21:43:54 10° NNE
NOSS 3-4 (C) 3.6 21:32:45 10° SSW 21:38:32 68° ESE 21:44:01 10° NNE
Cosmos 2227 Rocket 3.0 21:34:31 10° SW 21:39:15 28° WNW 21:44:01 10° NNW
Cosmos 1455 Rocket 3.6 21:35:40 10° SSW 21:39:43 35° W 21:43:45 10° NNW
CZ-2C R/B 3.5 21:40:05 10° NNW 21:43:31 30° WNW 21:46:57 10° SW
Cosmos 1408 3.8 21:44:25 22° W 21:44:25 22° W 21:46:59 10° SW
CZ-2C R/B 4.4 21:42:30 10° SW 21:43:43 12° WSW 21:43:43 12° WSW
Cosmos 1892 2.9 21:42:16 11° NNW 21:45:46 44° W 21:49:21 10° SSW
Skynet4D Del rocket 4.2 21:47:24 18° W 21:51:04 42° SSW 21:56:08 10° SE
Cosmos 1939 Rocket 3.4 21:49:47 10° NNW 21:53:10 31° WNW 21:56:36 10° SW
Cosmos 2322 3.6 21:48:40 10° NNW 21:54:18 75° WSW 21:59:56 10° S
NOAA 12 4.1 21:49:49 10° N 21:55:05 68° WNW 22:00:23 10° SSW
OAO 3 Rocket 4.4 21:53:45 15° W 21:56:55 28° SW 22:01:02 10° SSE
CZ-2C R/B 1.3 21:54:34 13° NW 21:57:12 46° NE 22:00:10 10° ESE
BLOCK DM-SL R/B 3.2 21:49:24 11° W 21:59:18 66° S 22:02:13 10° ESE
Meteor 2-17 Rocket 4.4 21:53:52 10° S 21:59:55 75° W 22:05:59 10° N
Cosmos 1184 Rocket 1.6 22:00:23 10° SSW 22:02:35 64° W 22:04:46 10° N
Cosmos 1238 Rocket 3.8 22:01:23 10° WSW 22:03:05 14° W 22:04:30 11° NW
Cosmos 2263 Rocket 2.2 21:58:49 10° SSW 22:04:29 88° WNW 22:10:07 10° NNE
FengYun 1-2 T 4.4 21:59:14 10° N 22:04:43 54° WNW 22:10:13 10° SSW
Cosmos 2228 3.8 22:03:53 10° S 22:08:08 58° E 22:12:20 10° NNE
Tiangong -1.9 22:06:50 10° WSW 22:09:56 51° NW 22:13:01 10° NNE
OAO 3 Copernicus 4.3 22:04:58 10° WSW 22:09:57 66° NW 22:14:55 10° NE
SKYMED 2 3.5 22:08:37 10° S 22:12:57 80° WSW 22:17:16 10° NNW
Centaur AC-112 2.6 22:09:58 10° W 22:13:14 26° NW 22:15:04 10° NNE
ARIANE 5 R/B 3.7 22:15:38 10° W 22:19:32 69° S 22:30:32 10° E
